Location: Hamayl? Da??
(36.7028°N, 30.1716°E)
Time: 05:54:51
(UTC+00:00)

Meteor 2-21 - Pass Details

Date: 04 August 2024
Orbit: 934 x 966 km, 82.5° (Epoch: 10 September)

Event Time Altitude Azimuth Distance (km) Brightness Sun altitude
Rises 20:08:29 0° 354° (N) 3,658 8.4 -29.7°
Reaches altitude 10° 20:11:00 10° 355° (N) 2,710 7.6 -30.0°
Enters shadow 20:16:44 74° 32° (NNE) 1,005 4.5 -30.6°
